OpenBCM V2.0.2 (Linux)

Packet Radio Mailbox

IZ3LSV

[San Dona' di P. JN]

 Login: GUEST





  
LU9DCE > KEPS     14.07.18 19:28l 252 Lines 12467 Bytes #999 (0) @ WW
BID : 9634_LU9DCE
Read: GUEST
Subj: SAT TLE 30 06 2018
Path: IZ3LSV<IW8PGT<CX2SA<EA2RCF<LU9DCE
Sent: 180630/0700Z 9634@LU9DCE.TOR.BA.ARG.SOAM BPQ6.0.16


            __    _  _  ___  ____   ___  ____    ____  ____  ____
           (  )  / )( \/ _ \(    \ / __)(  __)  (  _ \(  _ \/ ___)
           / (_/\) \/ (\__  )) D (( (__  ) _)    ) _ ( ) _ (\___ \
           \____/\____/(___/(____/ \___)(____)  (____/(____/(____/
               ESTACION DE PACKET RADIO - BUENOS AIRES (GF05OM)
                   BOLETINES INFORMATIVOS PROGRAMADOS (BIP)
                    LU9DCE@GMX.COM - RF 145070 @ 1200 BAUD
                   AXIP NETROM -- LU9DCE.DYNU.COM UDP 10093

+------------------------------------------------------------------------------+
OSCAR 7
1  7530U 74089B   18180.93273497 -.00000040 +00000-0 +29113-4 0  9990
2  7530 101.6877 148.0623 0011842 312.6736 063.9898 12.53633153995968
OSCAR 11 (UoSAT 2)
1 14781U 84021B   18180.68506771 +.00000081 +00000-0 +16195-4 0  9999
2 14781 097.6479 216.3679 0009606 049.2772 310.9275 14.83014241825292
OSCAR 19 (LUSAT)
1 20442U 90005G   18180.78170871 -.00000003 +00000-0 +14924-4 0  9991
2 20442 098.6105 119.1963 0012860 110.9398 249.3163 14.32898985485632
EYESAT A
1 22825U 93061C   18180.88488508 -.00000007 +00000-0 +15188-4 0  9990
2 22825 098.8632 157.2309 0007605 315.6800 044.3772 14.30033560291111
ITAMSAT
1 22826U 93061D   18180.89876433 -.00000015 +00000-0 +11889-4 0  9993
2 22826 098.8573 157.2811 0007981 303.8310 056.2112 14.30365102291329
RADIO ROSTO
1 23439U 94085A   18180.84755903 -.00000046 +00000-0 -85483-4 0  9990
2 23439 064.8186 328.3572 0156908 179.7765 298.9213 11.27567368967997
JAS 2
1 24278U 96046B   18180.87492445 -.00000013 +00000-0 +19995-4 0  9991
2 24278 098.5167 017.8821 0351405 078.0500 285.9802 13.53084279079705
TECHSAT 1B
1 25397U 98043D   18180.89312678 -.00000016 +00000-0 +12126-4 0  9996
2 25397 098.6503 121.1217 0001520 032.1584 327.9687 14.23647621037317
ISS (ZARYA)
1 25544U 98067A   18180.89340144 +.00002199 +00000-0 +40642-4 0  9992
2 25544 051.6425 315.3706 0003869 243.2106 259.9289 15.53990257120490
PCSAT
1 26931U 01043C   18180.59018855 -.00000037 +00000-0 +17703-4 0  9991
2 26931 067.0495 197.4058 0007991 272.9112 087.1075 14.30509405874253
SAUDISAT 1C
1 27607U 02058C   18180.95457645 -.00000013 +00000-0 +19042-4 0  9995
2 27607 064.5558 051.0095 0066603 325.6129 034.0671 14.75461014834713
CUTE-1
1 27844U 03031E   18180.90404955 +.00000039 +00000-0 +37154-4 0  9992
2 27844 098.6859 189.3726 0009346 342.2872 017.7978 14.22120273777967
CUBESAT XI 4
1 27848U 03031J   18180.93730314 +.00000032 +00000-0 +34276-4 0  9995
2 27848 098.6945 189.8076 0009457 352.9036 007.2006 14.21723648777840
MOZHAYETS 4
1 27939U 03042A   18181.21744508  .00000099  00000-0  26322-4 0  9996
2 27939  97.9924 320.0160 0014349 106.1537  14.5033 14.66696856788723
CUBESAT XI 5
1 28895U 05043F   18180.92434808 +.00000109 +00000-0 +29654-4 0  9990
2 28895 097.9108 331.8648 0017530 033.6054 326.6257 14.63558081675503
CUTE-1.7+APD II
1 32785U 08021C   18180.82334380 +.00000215 +00000-0 +28964-4 0  9996
2 32785 097.5464 192.3981 0013115 003.9803 356.1516 14.88138367550982
DELFI C3
1 32789U 08021G   18180.73522143 +.00000869 +00000-0 +63559-4 0  9990
2 32789 097.5110 235.2272 0010723 252.1427 107.8631 15.06123073553572
SEEDS
1 32791U 08021J   18180.75712450 +.00000236 +00000-0 +29511-4 0  9995
2 32791 097.5352 197.7223 0012845 343.8244 016.2563 14.90575810551301
YUBELEINY
1 32953U 08025A   18180.91679994 +.00000015 +00000-0 +39874-4 0  9990
2 32953 082.5025 004.7609 0019122 179.5321 180.5780 12.43083809458357
PRISM (HITOMI)
1 33493U 09002B   18180.87439683 +.00000704 +00000-0 +67930-4 0  9999
2 33493 098.1297 083.4526 0014135 275.7444 084.2168 14.96246724512243
KKS-1 (KISEKI)
1 33499U 09002H   18180.92939835 +.00000081 +00000-0 +20039-4 0  9992
2 33499 098.3564 003.1093 0007967 249.6194 110.4158 14.75340223506636
SWISSCUBE
1 35932U 09051B   18180.94238313 +.00000108 +00000-0 +35381-4 0  9991
2 35932 098.5470 332.4101 0008059 162.4652 197.6825 14.56171082465254
BEESAT
1 35933U 09051C   18180.89999356 +.00000099 +00000-0 +33390-4 0  9994
2 35933 098.5509 333.9225 0005983 172.5595 187.5692 14.56273783465310
ITUPSAT 1
1 35935U 09051E   18180.89320610 +.00000089 +00000-0 +31656-4 0  9999
2 35935 098.5622 334.1682 0008361 171.2269 188.9075 14.55449849465143
XIWANG-1 (HOPE-1)
1 36122U 09072B   18180.93336132 -.00000035 +00000-0 +18529-4 0  9998
2 36122 100.0744 194.9721 0008287 083.9358 276.2700 13.16345089410229
TISAT 1
1 36799U 10035E   18180.93575252 +.00000451 +00000-0 +51845-4 0  9996
2 36799 098.1083 317.4902 0012846 160.8747 199.2955 14.90822196431858
JUGNU
1 37839U 11058B   18180.56632251 +.00000309 +00000-0 +22991-4 0  9992
2 37839 019.9622 322.1886 0019058 023.4987 052.0170 14.12622327347017
SRMSAT
1 37841U 11058D   18180.89731723  .00000295  00000-0  16918-4 0  9991
2 37841  19.9736   9.6436 0011793 270.4289 223.6725 14.10608997346679
M-CUBED/EXP-1 PRIME
1 37855U 11061F   18180.90992081 +.00001437 +00000-0 +80752-4 0  9994
2 37855 101.7155 249.9502 0176409 044.6694 316.8575 15.04505022363091
HORYU 2
1 38340U 12025D   18180.95846807 +.00000180 +00000-0 +34448-4 0  9999
2 38340 098.3650 203.1173 0011910 163.9089 196.2500 14.75568593318587
STRAND 1
1 39090U 13009E   18180.79982013 +.00000020 +00000-0 +22318-4 0  9993
2 39090 098.5205 027.0200 0007989 259.1177 100.9110 14.35030827279618
SOMP
1 39134U 13015E   18180.90497215 +.00001341 +00000-0 +72785-4 0  9997
2 39134 064.8644 085.7693 0011514 215.6736 144.3623 15.19218765286457
BEESAT 3
1 39135U 13015F   18180.88185419 +.00001070 +00000-0 +64123-4 0  9991
2 39135 064.8696 099.3640 0019249 237.3236 122.6033 15.16720673286184
BEESAT 2
1 39136U 13015G   18180.92199527 +.00000997 +00000-0 +61304-4 0  9997
2 39136 064.8702 102.0564 0021735 234.9594 124.9493 15.16186643286136
CUBEBUG 1
1 39153U 13018D   18180.81282748 +.00000159 +00000-0 +27750-4 0  9992
2 39153 097.9798 275.9875 0015512 264.6307 095.3135 14.80407471279456
ZACUBE
1 39417U 13066B   18180.94960111 +.00000190 +00000-0 +30290-4 0  9997
2 39417 097.5859 208.9069 0060639 112.8578 247.9053 14.80947570248682
TRITON 1
1 39427U 13066M   18180.91297613 +.00000178 +00000-0 +36614-4 0  9997
2 39427 097.6416 175.9979 0113033 217.9925 141.3270 14.67680026246250
GOMX 1
1 39430U 13066Q   18180.92158875 +.00000163 +00000-0 +38997-4 0  9998
2 39430 097.6982 156.8785 0150094 290.6217 067.8942 14.59091922244826
HUMSAT D
1 39433U 13066T   18180.85057412 +.00000451 +00000-0 +49621-4 0  9994
2 39433 097.6027 236.7840 0031941 042.8014 317.5684 14.91885978249135
CUBEBUG 2
1 39440U 13066AA  18180.95621106 +.00000181 +00000-0 +32078-4 0  9998
2 39440 097.6004 195.4345 0081222 153.0710 207.4751 14.75685031246605
FUNCUBE 1
1 39444U 13066AE  18180.93881859 +.00000284 +00000-0 +41234-4 0  9991
2 39444 097.5867 210.4380 0059795 108.3394 252.4336 14.81730570246956
UWE-3
1 39446U 13066AG  18180.95710567 +.00000207 +00000-0 +34132-4 0  9996
2 39446 097.5917 201.7732 0071410 133.2967 227.4231 14.78219562246415
SPROUT
1 39770U 14029E   18180.84167493  .00000739  00000-0  88875-4 0  9991
2 39770  97.8773 281.7824 0009296 158.9315 201.2280 14.86877820222247
UNISAT 6
1 40012U 14033C   18180.70636721 +.00000184 +00000-0 +34872-4 0  9999
2 40012 097.8066 056.5143 0058914 157.6766 202.7027 14.73831418216542
DUCHIFAT 1
1 40021U 14033M   18180.81529583 +.00000292 +00000-0 +35869-4 0  9995
2 40021 097.9159 099.5574 0013969 132.0355 228.2054 14.90326795218836
QB50P1
1 40025U 14033R   18180.71624817 +.00000286 +00000-0 +36587-4 0  9995
2 40025 097.9051 096.0895 0013341 138.6873 221.5355 14.88729257218141
CHUBUSAT 1
1 40300U 14070C   18180.79325200  .00000838  00000-0  40036-4 0  9991
2 40300  97.3626 258.2182 0019076 216.4074 291.9003 15.21601389202191
NUDT-PHONESAT
1 40900U 15049B   18180.93360850 +.00001895 +00000-0 +87472-4 0  9999
2 40900 097.4398 189.0381 0013079 352.9176 007.1873 15.21393521153858
ZDPS 2A
1 40901U 15049C   18180.93917762 +.00000897 +00000-0 +48570-4 0  9997
2 40901 097.4580 187.0859 0013665 001.0808 359.0452 15.17123527153590
ZDPS 2B
1 40902U 15049D   18180.91461504 +.00000871 +00000-0 +47484-4 0  9999
2 40902 097.4481 185.0639 0013648 358.2260 001.8923 15.16917606153576
XW-2A
1 40903U 15049E   18180.90795799 +.00001858 +00000-0 +47723-4 0  9997
2 40903 097.3823 215.8895 0013708 352.0219 008.0807 15.40565766155761
KAITUO 1A
1 40904U 15049F   18180.83060450  .00000558  00000-0  33305-4 0  9996
2 40904  97.4581 184.1785 0014997   1.0126 120.0006 15.15041287153414
OBJECT G
1 40905U 15049G   18180.97145615 +.00000395 +00000-0 +25315-4 0  9990
2 40905 097.4584 182.3709 0015534 352.9491 007.1520 15.13991971153356
XW-2C
1 40906U 15049H   18180.93184207 +.00000656 +00000-0 +38370-4 0  9992
2 40906 097.4594 184.1894 0014740 352.5543 007.5468 15.15218959153428
XW-2D
1 40907U 15049J   18180.94905046 +.00000694 +00000-0 +40201-4 0  9994
2 40907 097.4568 183.9017 0014046 350.5940 009.5028 15.15372026153433
LILACSAT 2
1 40908U 15049K   18180.97115410 +.00000357 +00000-0 +23539-4 0  9997
2 40908 097.4681 183.2656 0015730 351.6551 008.4416 15.13528776153301
XW-2F
1 40910U 15049M   18180.95354686 +.00001052 +00000-0 +57184-4 0  9994
2 40910 097.4568 185.2442 0014611 345.7693 014.3127 15.16577948153517
XW-2B
1 40911U 15049N   18180.96703115 +.00000673 +00000-0 +39194-4 0  9990
2 40911 097.4603 184.4619 0013968 351.1601 008.9383 15.15315493153336
KAITUO 1B
1 40912U 15049P   18180.92998904 +.00001659 +00000-0 +82865-4 0  9997
2 40912 097.4496 188.0766 0014592 333.6623 087.5636 15.18803777153607
TIANWANG 1C (TW-1C)
1 40926U 15051B   18181.11853051  .00010240  00000-0  18872-3 0  9992
2 40926  97.1819 223.3995 0008553 219.7956 197.6491 15.49294058155310
